Weather History for KMDW - July, 2013

Change the Weather History Date:

Friday, July 19, 2013

  Actual Average Record
Temperature  
Mean Temperature 86 °F 76 °F  
Max Temperature 97 °F 84 °F 104 °F (1930)
Min Temperature 75 °F 68 °F 55 °F (1947)
Degree Days  
Heating Degree Days 0 0  
Month to date heating degree days 0 0  
Since 1 June heating degree days 36 31  
Since 1 July heating degree days 0 0  
Cooling Degree Days 21 11  
Month to date cooling degree days 233 207  
Year to date cooling degree days 520 491  
Since 1 June cooling degree days 414 417  
Growing Degree Days 36 (Base 50)    
Moisture  
Dew Point 69 °F    
Average Humidity 55    
Maximum Humidity 83    
Minimum Humidity 29    
Precipitation  
Precipitation 0.00 in 0.13 in 3.69 in (1990)
Month to date precipitation 0.94 2.34  
Year to date precipitation 21.81 20.89  
Sea Level Pressure  
Sea Level Pressure 29.82 in    
Wind  
Wind Speed 14 mph (WSW)    
Max Wind Speed 30 mph    
Max Gust Speed 37 mph    
Visibility 10 miles    
Events Thunderstorm    
T = Trace of Precipitation, MM = Missing Value Source: NWS Daily Summary

Daily Weather History Graph

Daily Weather History Graph

Search for Another Location

Airport or City:

Trip Planner

Search our weather history database for the weather conditions in past years. The results will help you decide how hot, cold, wet, or windy it might be!

Date:

Astronomy

Jul. 19, 2013 Rise Set
Actual Time 5:32 AM CDT 8:21 PM CDT
Civil Twilight 5:00 AM CDT 8:53 PM CDT
Nautical Twilight 4:18 AM CDT 9:34 PM CDT
Astronomical Twilight 3:31 AM CDT 10:22 PM CDT
Moon 5:23 PM CDT (7/19) 2:14 AM CDT (7/19)
Length of Visible Light 15h 53m
Length of Day
14h 48m
Waxing Gibbous, 87% of the Moon is Illuminated
Jul 19
Waxing Gibbous
Jul 22
Full
Jul 29
Last Quarter
Aug 6
New
Aug 14
First Quarter

Hourly Weather History & Observations

Time (CDT) Temp. Heat Index Dew Point Humidity Pressure Visibility Wind Dir Wind Speed Gust Speed Precip Events Conditions
12:51 AM 82.0 °F 87.4 °F 73.0 °F 74% 29.92 in 10.0 mi SSW 9.2 mph - N/A   Clear
1:51 AM 82.0 °F 86.7 °F 72.0 °F 71% 29.90 in 10.0 mi SSW 9.2 mph - N/A   Clear
2:51 AM 81.0 °F 85.2 °F 72.0 °F 74% 29.89 in 10.0 mi SSW 8.1 mph - N/A   Clear
3:51 AM 81.0 °F 84.9 °F 71.1 °F 72% 29.87 in 10.0 mi SW 9.2 mph - N/A   Clear
4:51 AM 81.0 °F 84.4 °F 70.0 °F 69% 29.86 in 10.0 mi SW 11.5 mph - N/A   Clear
5:51 AM 80.1 °F 83.2 °F 70.0 °F 71% 29.87 in 8.0 mi SW 6.9 mph - N/A   Clear
6:51 AM 81.0 °F 84.9 °F 71.1 °F 72% 29.87 in 8.0 mi SW 10.4 mph - N/A   Clear
7:51 AM 82.9 °F 87.5 °F 71.1 °F 67% 29.87 in 10.0 mi WSW 12.7 mph - N/A   Clear
8:51 AM 86.0 °F 90.7 °F 70.0 °F 59% 29.88 in 10.0 mi WSW 16.1 mph 23.0 mph N/A   Clear
9:51 AM 89.1 °F 94.1 °F 70.0 °F 53% 29.86 in 10.0 mi WSW 15.0 mph 21.9 mph N/A   Clear
10:51 AM 91.0 °F 95.6 °F 69.1 °F 48% 29.85 in 10.0 mi WSW 17.3 mph 26.5 mph N/A   Clear
11:51 AM 93.9 °F 99.1 °F 69.1 °F 44% 29.83 in 10.0 mi SW 19.6 mph 28.8 mph N/A   Partly Cloudy
12:51 PM 95.0 °F 99.5 °F 68.0 °F 41% 29.81 in 10.0 mi West 13.8 mph 27.6 mph N/A   Partly Cloudy
1:51 PM 96.1 °F 99.3 °F 66.0 °F 37% 29.79 in 10.0 mi WSW 18.4 mph 27.6 mph N/A   Partly Cloudy
2:51 PM 96.1 °F 99.3 °F 66.0 °F 37% 29.77 in 10.0 mi WSW 18.4 mph 31.1 mph N/A   Scattered Clouds
3:51 PM 96.1 °F 99.9 °F 66.9 °F 38% 29.75 in 10.0 mi WSW 18.4 mph 29.9 mph N/A   Scattered Clouds
4:51 PM 96.1 °F 99.9 °F 66.9 °F 38% 29.75 in 10.0 mi WSW 23.0 mph 29.9 mph N/A   Scattered Clouds
5:51 PM 93.9 °F 97.0 °F 66.0 °F 40% 29.74 in 10.0 mi WSW 19.6 mph 27.6 mph N/A   Scattered Clouds
6:51 PM 93.0 °F 96.4 °F 66.9 °F 42% 29.74 in 10.0 mi WSW 19.6 mph 25.3 mph N/A   Scattered Clouds
7:51 PM 90.0 °F 92.8 °F 66.9 °F 46% 29.73 in 10.0 mi WSW 16.1 mph 23.0 mph N/A   Scattered Clouds
8:51 PM 89.1 °F 92.1 °F 66.9 °F 48% 29.74 in 10.0 mi SW 11.5 mph - N/A   Scattered Clouds
9:51 PM 88.0 °F 90.7 °F 66.9 °F 49% 29.76 in 10.0 mi WSW 11.5 mph - N/A   Mostly Cloudy
9:59 PM 86.0 °F 88.2 °F 66.2 °F 51% 29.85 in 10.0 mi NW 20.7 mph 32.2 mph N/A Thunderstorm Thunderstorm
10:14 PM 78.8 °F - 64.4 °F 61% 29.83 in 10.0 mi NW 9.2 mph 29.9 mph N/A Thunderstorm Thunderstorm
10:51 PM 77.0 °F - 69.8 °F 78% 29.81 in 10.0 mi WNW 15.0 mph 23.0 mph 0.00 in Thunderstorm Thunderstorm
11:36 PM 75.2 °F - 69.8 °F 83% 29.81 in 10.0 mi SW 5.8 mph - N/A   Overcast
11:51 PM 77.0 °F - 69.1 °F 76% 29.78 in 10.0 mi SW 6.9 mph - N/A   Overcast